Погода в Русском Сарсе

Россия / Пермский край     56˚11′51″N   57˚06′03″E
темп.,
°C
ветер,
м/с
пор.,
м/с
влажн.,
%
обл.,
%
осадки,
мм/ч
давл.,
гПа
погр.,
м
17 января, вс
вс1723:00−11˚юз7158998 0.4 1004923
02:00−11˚юз61491100 0.2 1003933
05:00−9˚ююз61493100 0.7 1001942
08:00−9˚ююз61393100 0.8 9991041
11:00−10˚з5993100 2.1 1000841
14:00−13˚зюз61192100 0.5 1002920
17:00−14˚зюз61293100 0.9 1006770
20:00−16˚зюз51094100 0.3 1009583
18 января, пн
пн1823:00−19˚зюз4897100 0.4 1012339
02:00−21˚юз26100100 0.1 1016174
05:00−24˚юз23100100 0.1 101975
08:00−25˚ююз23100100 0.0 102073
11:00−24˚ююз24100100 0.1 1022132
14:00−20˚ююз239589 0.0 1021224
17:00−23˚ююз119968 0.0 102220
20:00−24˚всв11980 0.0 102120
19 января, вт
вт1923:00−23˚в119525 0.0 102120
02:00−21˚всв2292100 0.0 102033
05:00−21˚всв2291100 0.0 101952
08:00−18˚в3886100 0.0 1017226
11:00−15˚в41079100 0.0 1015317
14:00−13˚в4989100 0.1 1013322
17:00−11˚вюв4994100 1.6 1012387
20:00−11˚вюв4892100 0.1 1010312
20 января, ср
ср2023:00−12˚вюв4895100 0.5 1010267
02:00−12˚вюв3695100 1.0 1010240
05:00−12˚ююв2696100 1.6 1010296
08:00−13˚ю3895100 0.5 1010455
11:00−14˚юз4795100 0.9 1010479
14:00−17˚юз5993100 0.4 1011615
17:00−18˚юз4994100 0.6 1011628
20:00−20˚юз41096100 0.2 1012578
21 января, чт
чт2123:00−21˚юз41097100 0.6 1012529
02:00−21˚юз4997100 0.4 1013484
05:00−20˚юз51096100 0.6 1013528
08:00−22˚зюз4997100 0.3 1013409
11:00−21˚юз4997100 0.6 1014397
14:00−19˚юз4995100 0.2 1014445
17:00−19˚юз4996100 0.6 1013504
20:00−19˚юз4997100 0.3 1014401